Location: Taukkyan
(23.1052°N, 94.0030°E)
Time: 07:15:32
(UTC+00:00)

Cosmos 1666 - Pass Details

Date: 06 July 2020
Orbit: 497 x 521 km, 82.5° (Epoch: 05 August)

Event Time Altitude Azimuth Distance (km) Brightness Sun altitude
Exits shadow 20:50:16 32° 360° (N) 897 4.2 -26.5°
Drops below altitude 10° 20:52:24 10° 3° (N) 1,733 5.9 -26.2°
Sets 20:54:31 0° 4° (N) 2,617 6.9 -25.8°
